Location: Newark
(32.5233°N, 7.6150°W)
Time: 04:20:27
(UTC+00:00)

OTV 5 (USA 277) - Visible Passes

Search period start: 23 August 2019 00:00
Search period end: 02 September 2019 00:00
Orbit: 305 x 329 km, 54.5° (Epoch: 20 August)

Date Brightness Start Highest point End Pass type
(mag) Time Alt. Az. Time Alt. Az. Time Alt. Az.
23 Aug ? 04:28:35 16° NNW 04:30:23 36° NE 04:32:51 10° ESE visible
23 Aug ? 20:44:35 10° WSW 20:46:58 27° NW 20:48:23 17° N visible
24 Aug ? 04:45:32 37° S 04:45:32 37° S 04:47:27 10° SSE visible
24 Aug ? 21:01:10 10° NW 21:01:42 10° NW 21:02:14 10° NNW visible
25 Aug ? 19:39:07 10° SW 19:41:46 51° NW 19:44:24 10° NNE visible
26 Aug ? 19:54:34 10° W 19:56:25 16° NW 19:58:16 10° N visible
